Regional Weather Roundup
Issued by NWS

Home | Current Version | Previous Version | Graphics & Text | Print | Product List | Glossary On
Versions: 1 2 3 4 5 6 7 8 9 10 11 12 13 14 15 16 17 18 19 20 21 22 23 24 25 26 27
000
ASUS45 KBOU 180807
RWRCO

WEATHER ROUNDUP FOR COLORADO
NATIONAL WEATHER SERVICE DENVER/BOULDER CO
200 AM MDT FRI AUG 18 2017

NOTE: "FAIR" INDICATES FEW OR NO CLOUDS BELOW 12000 FEET WITH NO
SIGNIFICANT WEATHER AND/OR OBSTRUCTIONS TO VISIBILITY.

COZ001>005-013-030-031-180900-
...NORTHWEST COLORADO...

CITY           SKY/WX    TMP DP  RH WIND       PRES   REMARKS
CRAIG          FAIR      52  37  56 CALM      30.26S
HAYDEN         FAIR      58  40  51 NE5       30.29S
MEEKER         FAIR      57  41  55 NE8       30.28F
RABBIT EARS PA FAIR      48  34  57 W10       30.53F
STEAMBOAT SPGS FAIR      54  40  59 E3        30.30R
WALDEN         FAIR      43  34  70 SE6       30.38S
$$

COZ006>008-011-180900-
...WEST CENTRAL VALLEYS...

CITY           SKY/WX    TMP DP  RH WIND       PRES   REMARKS
GRAND JUNCTION FAIR      69  37  30 SE15      30.14R
MONTROSE       FAIR      62  38  40 SE10      30.24R
EAGLE          FAIR      53  36  52 SE3       30.33S
RIFLE          FAIR      59  38  45 SE3       30.22R
DELTA          FAIR      63  37  37 NE7       30.20S
NUCLA          FAIR      61  32  33 SE9       30.27S
$$

COZ017>023-064>068-180900-
...SOUTHWEST COLORADO...

CITY           SKY/WX    TMP DP  RH WIND       PRES   REMARKS
DURANGO        FAIR      54  35  48 N6        30.29S
CORTEZ         FAIR      51  35  54 E5        30.24S
PAGOSA SPRINGS FAIR      50  33  50 CALM      30.38S
TELLURIDE      FAIR      50  32  50 SE8       30.50R
WOLF CREEK PAS FAIR      46  27  46 NW3       30.72S
$$

COZ009-010-012-014-032>034-037-058>063-180900-
...CENTRAL COLORADO...

CITY           SKY/WX    TMP DP  RH WIND       PRES   REMARKS
ASPEN          MOCLDY    50  37  61 S7        30.37F
BUENA VISTA    FAIR      46  37  69 CALM      30.40F
COPPER MTN     FAIR      46  30  53 W8        30.65F
BERTHOUD PASS  FAIR      39  34  81 NW22G32   30.65S
COTTONWOOD PAS FAIR      55  28  35 W9        30.51F
GUNNISON       FAIR      43  36  76 CALM      30.42R
KREMMLING      FAIR      50  43  76 CALM      30.37R
LEADVILLE      FAIR      40  31  70 NE3       30.51S
MONARCH PASS   FAIR      45  28  53 W12       30.77S
SALIDA         FAIR      52  38  59 W5        30.45S
SUNLIGHT       MOCLDY    52  28  40 NW3       30.60F
WILKERSON PASS FAIR      46  28  49 W5        30.63F
$$

COZ069>075-180900-
...SAN LUIS VALLEY/SANGRE DE CRISTO MOUNTAINS...

CITY           SKY/WX    TMP DP  RH WIND       PRES   REMARKS
ALAMOSA        FAIR      46  39  76 SW6       30.35F
DEL NORTE      FAIR      54  35  50 W16       30.40S
LA VETA PASS   NOT AVBL
SAGUACHE       FAIR      52  34  50 N10       30.39F
$$

COZ035-036-038>040-180900-
...NORTHERN COLORADO FRONT RANGE...

CITY           SKY/WX    TMP DP  RH WIND       PRES   REMARKS
DENVER INTL AP FAIR      63  42  46 W5        30.15S
DMNS CITY PARK   N/A     60  45  57 SE8       30.17R
AURORA         CLEAR     62  42  47 SW6       30.18R
FRONT RANGE AP FAIR      59  45  58 NW5       30.18R
ERIE MUNI ARPT FAIR      57  46  66 SW3       30.20S
BOULDER MUN AP FAIR      63  45  51 W5        30.17S
CENTENNIAL     FAIR      63  40  42 W7        30.19R
BROOMFIELD     NOT AVBL
FORT COLLINS   FAIR      62  48  60 N9        30.15R
LONGMONT       FAIR      62  47  57 CALM      30.17S
$$

COZ041-046-047-076>085-087-088-180900-
...PIKES PEAK/PALMER DIVIDE AND SOUTHERN FOOTHILLS...

CITY           SKY/WX    TMP DP  RH WIND       PRES   REMARKS
COLO. SPRINGS  FAIR      57  45  64 N6        30.23F
A. F. ACADEMY  FAIR      56  40  53 NE6       30.24F
SCHRIEVER AFB  FAIR      59  46  61 MISG      30.22F
CHEYENNE MTN   FAIR      70  31  23 W10       30.22F
ELLICOTT       FAIR     N/A N/A N/A CALM      30.21F
FALCON         FAIR      56  39  53 NW10      30.27F
FORT CARSON    FAIR      55  43  64 NW9       30.19F
LIMON          FAIR      51  49  92 N7        30.14F
MONUMENT HILL  FAIR      55  37  50 SW9       30.29S
CANON CITY     CLEAR     64  43  45 W15       30.18F
WALSENBURG     FAIR      61  43  51 W9        30.22F
TRINIDAD       FAIR      61  44  53 W15       30.20F
$$

COZ042>045-048>051-090-091-180900-
...NORTHEAST COLORADO...

CITY           SKY/WX    TMP DP  RH WIND       PRES   REMARKS
GREELEY ARPT   FAIR      58  51  78 W7        30.14R
AKRON          FAIR      61  47  59 N8        30.10S
BURLINGTON     FAIR      62  59  90 S12       30.08F
WRAY           NOT AVBL
YUMA           FAIR      57  52  82 N5        30.06S
STERLING       FAIR      59  52  77 N7        30.07F
HOLYOKE        FAIR      63  54  72 NW7       30.04F
FORT MORGAN    FAIR      61  46  58 N13       30.10F
$$

COZ086-089-092>099-180900-
...SOUTHEAST COLORADO...

CITY           SKY/WX    TMP DP  RH WIND       PRES   REMARKS
PUEBLO         FAIR      61  49  64 NW3       30.12F
LA JUNTA       FAIR      63  53  70 W10       30.08F
LAMAR          FAIR      61  57  87 E7        30.03S
SPRINGFIELD      N/A     63  63 100 S17       30.08F
$$




USA.gov is the U.S. government's official web portal to all federal, state and local government web resources and services.